HST 1 20580U 90037B 24350.91440700 .00008939 00000-0 37412-3 0 9992 2 20580 28.4664 204.1584 0001758 227.2211 132.8235 15.21785354704702 ISS (ZARYA) 1 25544U 98067A 24350.89279255 .00017031 00000-0 29887-3 0 9990 2 25544 51.6375 135.1316 0007555 345.0591 15.0174 15.50624323486735 CXO 1 25867U 99040B 24347.67995738 .00000403 00000-0 00000-0 0 9991 2 25867 45.2638 139.9696 8693340 305.0901 0.0820 0.37810292 15235